Weather in Zamberk

Czech Republic     50°05′12″N   16°27′47″E
temp.,
°C
wind,
m/s
gust,
m/s
humid.,
%
clouds,
%
prec.,
mm/h
press.,
hPa
HPBL,
m
2 march, tue
tue201:00+1se11910 0.0 103622
04:000ese11920 0.0 103521
07:00+1se12880 0.0 103622
10:00+5se22610 0.0 1035233
13:00+9se21480 0.0 1034393
16:00+9ese12580 0.0 1033106
19:00+4se12700 0.0 103422
22:00+3ese12760 0.0 103422
3 march, wed
wed301:00+2se11800 0.0 103422
04:00+2se11790 0.0 103222
07:00+2se12750 0.0 103222
10:00+7s125623 0.0 1030244
13:00+10sw124945 0.0 1029580
16:00+9wnw236222 0.0 1026366
19:00+5nnw017811 0.0 102622
22:00+4sse11830 0.0 102522
4 march, thu
thu401:00+3s118513 0.0 102322
04:00+2wsw118655 0.0 102122
07:00+2wsw118747 0.0 102022
10:00+7w35720 0.0 1018413
13:00+10w466511 0.0 1016769
16:00+10wnw477099 0.0 1013968
19:00+7wsw2888100 0.2 1013410
22:00+6nw5995100 1.6 1013522
5 march, fri
fri501:00+5nw2496100 2.4 1013205
04:00+3nne4596100 1.4 1012334
07:00+1nne5890100 2.9 1015534
10:00+1nne7973100 0.1 1017721
13:00+1nne7966100 0.1 1020903
16:000nne685990 0.0 10211267
19:00−2nnw397045 0.0 1024516
22:00−2nnw39730 0.0 1027691
6 march, sat
sat601:00−2nnw48690 0.0 1028615
04:00−3nnw47720 0.0 1030687
07:00−4n48750 0.0 1032701
10:00−1n46440 0.0 10331642
13:00+1nnw453948 0.0 10321759
16:00+1wnw454296 0.0 10311654
19:00−3w346272 0.0 1032102
22:00−3w24640 0.0 1032127